| time (UTC) | temp C | wind direction | speed KPH | gust KPH | rain 1hr cm | rain 24hr cm | rain mn cm | humidity % | barometer mb |
| 20260507094028 | 10 | 358 | 8.0 | 12.9 | 0.00 | 0.00 | 0.00 | 91 | 1018.5 |
| 20260507093028 | 10 | 349 | 9.7 | 11.3 | 0.00 | 0.00 | 0.00 | 91 | 1018.5 |
| 20260507092527 | 10 | 344 | 9.7 | 11.3 | 0.00 | 0.00 | 0.00 | 91 | 1018.4 |
| 20260507092028 | 10 | 358 | 6.4 | 11.3 | 0.00 | 0.00 | 0.00 | 91 | 1018.5 |
| 20260507091528 | 10 | 356 | 8.0 | 12.9 | 0.00 | 0.00 | 0.00 | 91 | 1018.5 |
| 20260507091028 | 10 | 353 | 11.3 | 12.9 | 0.00 | 0.00 | 0.00 | 91 | 1018.3 |
| 20260507090528 | 10 | 353 | 9.7 | 12.9 | 0.00 | 0.00 | 0.00 | 92 | 1018.3 |
| 20260507085528 | 10 | 0 | 9.7 | 14.5 | 0.00 | 0.00 | 0.00 | 92 | 1018.4 |
| 20260507085028 | 10 | 1 | 11.3 | 14.5 | 0.00 | 0.00 | 0.00 | 92 | 1018.3 |
| 20260507084527 | 10 | 356 | 11.3 | 12.9 | 0.00 | 0.00 | 0.00 | 92 | 1018.4 |
| 20260507084027 | 10 | 356 | 8.0 | 9.7 | 0.00 | 0.00 | 0.00 | 92 | 1018.5 |
| 20260507083527 | 10 | 338 | 6.4 | 9.7 | 0.00 | 0.00 | 0.00 | 91 | 1018.7 |
| 20260507083028 | 10 | 356 | 6.4 | 9.7 | 0.00 | 0.00 | 0.00 | 91 | 1018.6 |
| 20260507082528 | 10 | 358 | 9.7 | 9.7 | 0.00 | 0.00 | 0.00 | 91 | 1018.5 |
| 20260507082028 | 10 | 358 | 8.0 | 11.3 | 0.00 | 0.00 | 0.00 | 92 | 1018.5 |
| 20260507081528 | 10 | 340 | 8.0 | 11.3 | 0.00 | 0.00 | 0.00 | 92 | 1018.3 |
| 20260507081028 | 10 | 349 | 8.0 | 12.9 | 0.00 | 0.00 | 0.00 | 92 | 1018.3 |
| 20260507080528 | 10 | 6 | 9.7 | 12.9 | 0.00 | 0.00 | 0.00 | 92 | 1018.1 |
| 20260507080028 | 10 | 359 | 6.4 | 12.9 | 0.00 | 0.00 | 0.00 | 92 | 1018.1 |
| 20260507075528 | 10 | 2 | 12.9 | 12.9 | 0.00 | 0.00 | 0.00 | 92 | 1018.1 |
| 20260507075028 | 10 | 10 | 11.3 | 14.5 | 0.00 | 0.00 | 0.00 | 92 | 1018.1 |
| 20260507074527 | 10 | 7 | 11.3 | 14.5 | 0.00 | 0.00 | 0.00 | 92 | 1018.1 |
| 20260507074028 | 10 | 3 | 11.3 | 14.5 | 0.00 | 0.00 | 0.00 | 92 | 1018.1 |
| 20260507073528 | 10 | 7 | 11.3 | 14.5 | 0.00 | 0.00 | 0.00 | 91 | 1018.2 |
| 20260507073028 | 10 | 358 | 9.7 | 12.9 | 0.00 | 0.00 | 0.00 | 91 | 1018.3 |
| 20260507072528 | 10 | 3 | 11.3 | 12.9 | 0.00 | 0.00 | 0.00 | 91 | 1018.3 |
| 20260507072028 | 10 | 357 | 11.3 | 12.9 | 0.00 | 0.00 | 0.00 | 91 | 1018.4 |
| 20260507071528 | 10 | 10 | 11.3 | 12.9 | 0.00 | 0.00 | 0.00 | 92 | 1018.3 |
| 20260507071027 | 10 | 6 | 11.3 | 12.9 | 0.00 | 0.00 | 0.00 | 92 | 1018.3 |
| 20260507070528 | 10 | 8 | 9.7 | 12.9 | 0.00 | 0.00 | 0.00 | 92 | 1018.3 |
| 20260507065528 | 10 | 10 | 9.7 | 12.9 | 0.00 | 0.00 | 0.00 | 92 | 1018.3 |
| 20260507065028 | 10 | 5 | 11.3 | 12.9 | 0.00 | 0.00 | 0.00 | 92 | 1018.5 |
| 20260507064528 | 10 | 6 | 11.3 | 12.9 | 0.00 | 0.00 | 0.00 | 92 | 1018.4 |
| 20260507064028 | 10 | 3 | 11.3 | 11.3 | 0.00 | 0.00 | 0.00 | 91 | 1018.3 |
| 20260507063529 | 10 | 13 | 9.7 | 11.3 | 0.00 | 0.00 | 0.00 | 91 | 1018.3 |
| 20260507063028 | 10 | 6 | 8.0 | 11.3 | 0.00 | 0.00 | 0.00 | 91 | 1018.3 |
| 20260507062528 | 11 | 8 | 11.3 | 12.9 | 0.00 | 0.00 | 0.00 | 91 | 1018.3 |
| 20260507062028 | 11 | 12 | 11.3 | 12.9 | 0.00 | 0.00 | 0.00 | 91 | 1018.2 |
| 20260507061528 | 11 | 358 | 11.3 | 12.9 | 0.00 | 0.00 | 0.00 | 91 | 1018.2 |
| 20260507061028 | 11 | 3 | 11.3 | 11.3 | 0.00 | 0.00 | 0.00 | 91 | 1018.1 |
| 20260507060528 | 11 | 4 | 9.7 | 11.3 | 0.00 | 0.00 | 0.00 | 90 | 1018.1 |
| 20260507055528 | 11 | 5 | 8.0 | 9.7 | 0.00 | 0.00 | 0.00 | 89 | 1017.8 |
| 20260507055028 | 11 | 14 | 8.0 | 9.7 | 0.00 | 0.00 | 0.00 | 88 | 1017.7 |
| 20260507054528 | 11 | 21 | 8.0 | 9.7 | 0.00 | 0.00 | 0.00 | 88 | 1017.6 |
| 20260507054028 | 11 | 23 | 8.0 | 11.3 | 0.00 | 0.00 | 0.00 | 88 | 1017.7 |
| 20260507053528 | 11 | 26 | 9.7 | 11.3 | 0.00 | 0.00 | 0.00 | 87 | 1017.6 |
| 20260507053028 | 11 | 32 | 9.7 | 11.3 | 0.00 | 0.00 | 0.00 | 87 | 1017.5 |
| 20260507052028 | 11 | 30 | 9.7 | 12.9 | 0.00 | 0.00 | 0.00 | 87 | 1017.4 |
| 20260507051028 | 12 | 55 | 11.3 | 12.9 | 0.00 | 0.00 | 0.00 | 86 | 1017.5 |
| 20260507045528 | 12 | 56 | 11.3 | 12.9 | 0.00 | 0.00 | 0.00 | 85 | 1017.5 |
| 20260507045029 | 12 | 52 | 9.7 | 14.5 | 0.00 | 0.00 | 0.00 | 84 | 1017.5 |
| 20260507044528 | 12 | 58 | 11.3 | 14.5 | 0.00 | 0.00 | 0.00 | 84 | 1017.6 |
| 20260507044028 | 12 | 49 | 11.3 | 14.5 | 0.00 | 0.00 | 0.00 | 84 | 1017.6 |
| 20260507043528 | 12 | 50 | 11.3 | 12.9 | 0.00 | 0.00 | 0.00 | 83 | 1017.7 |
| 20260507043028 | 12 | 62 | 11.3 | 12.9 | 0.00 | 0.00 | 0.00 | 83 | 1017.8 |
| 20260507042028 | 12 | 46 | 11.3 | 14.5 | 0.00 | 0.00 | 0.00 | 82 | 1017.8 |
| 20260507041528 | 12 | 55 | 9.7 | 14.5 | 0.00 | 0.00 | 0.00 | 81 | 1017.8 |
| 20260507041028 | 12 | 54 | 11.3 | 14.5 | 0.00 | 0.00 | 0.00 | 81 | 1017.8 |
| 20260507040528 | 12 | 56 | 14.5 | 14.5 | 0.00 | 0.00 | 0.00 | 81 | 1017.7 |
| 20260507040028 | 13 | 60 | 9.7 | 12.9 | 0.00 | 0.00 | 0.00 | 80 | 1017.7 |
| 20260507035028 | 13 | 64 | 11.3 | 12.9 | 0.00 | 0.00 | 0.00 | 79 | 1017.6 |
| 20260507034028 | 13 | 59 | 11.3 | 14.5 | 0.00 | 0.00 | 0.00 | 77 | 1017.6 |
| 20260507033528 | 13 | 53 | 12.9 | 14.5 | 0.00 | 0.00 | 0.00 | 77 | 1017.6 |
| 20260507033028 | 13 | 63 | 12.9 | 16.1 | 0.00 | 0.00 | 0.00 | 76 | 1017.6 |
| 20260507032528 | 13 | 45 | 11.3 | 17.7 | 0.00 | 0.00 | 0.00 | 76 | 1017.6 |
| 20260507031028 | 14 | 46 | 11.3 | 22.5 | 0.00 | 0.00 | 0.00 | 75 | 1017.5 |
| 20260507030028 | 14 | 33 | 14.5 | 16.1 | 0.00 | 0.00 | 0.00 | 75 | 1017.4 |
| 20260507025528 | 14 | 43 | 14.5 | 17.7 | 0.00 | 0.00 | 0.00 | 75 | 1017.4 |
| 20260507025028 | 14 | 35 | 14.5 | 20.9 | 0.00 | 0.00 | 0.00 | 75 | 1017.4 |
| 20260507024528 | 14 | 39 | 14.5 | 20.9 | 0.00 | 0.00 | 0.00 | 74 | 1017.4 |
| 20260507023528 | 14 | 30 | 17.7 | 27.4 | 0.00 | 0.00 | 0.00 | 74 | 1017.2 |
| 20260507022029 | 15 | 36 | 14.5 | 25.7 | 0.00 | 0.00 | 0.00 | 73 | 1017.1 |
| 20260507021528 | 15 | 35 | 14.5 | 24.1 | 0.00 | 0.00 | 0.00 | 73 | 1017.1 |
| 20260507021028 | 15 | 30 | 22.5 | 24.1 | 0.00 | 0.00 | 0.00 | 73 | 1017.0 |
| 20260507020528 | 15 | 37 | 16.1 | 25.7 | 0.00 | 0.00 | 0.00 | 73 | 1016.9 |
| 20260507015528 | 15 | 33 | 14.5 | 29.0 | 0.00 | 0.00 | 0.00 | 72 | 1016.7 |
| 20260507015028 | 15 | 34 | 29.0 | 29.0 | 0.00 | 0.00 | 0.00 | 71 | 1016.5 |
| 20260507014528 | 15 | 25 | 27.4 | 27.4 | 0.00 | 0.00 | 0.00 | 72 | 1016.3 |
| 20260507014028 | 15 | 25 | 24.1 | 29.0 | 0.00 | 0.00 | 0.00 | 71 | 1016.3 |
| 20260507013529 | 15 | 23 | 16.1 | 29.0 | 0.00 | 0.00 | 0.00 | 71 | 1016.2 |
| 20260507013028 | 15 | 19 | 16.1 | 30.6 | 0.00 | 0.00 | 0.00 | 71 | 1016.0 |
| 20260507012528 | 15 | 24 | 24.1 | 30.6 | 0.00 | 0.00 | 0.00 | 71 | 1015.8 |
| 20260507012028 | 15 | 20 | 29.0 | 29.0 | 0.00 | 0.00 | 0.00 | 72 | 1015.7 |
| 20260507011528 | 15 | 16 | 20.9 | 29.0 | 0.00 | 0.00 | 0.00 | 71 | 1015.6 |
| 20260507010528 | 15 | 1 | 20.9 | 27.4 | 0.00 | 0.00 | 0.00 | 71 | 1015.5 |
| 20260507010028 | 15 | 18 | 20.9 | 25.7 | 0.00 | 0.00 | 0.00 | 71 | 1015.4 |
| 20260507005528 | 15 | 19 | 17.7 | 30.6 | 0.00 | 0.00 | 0.00 | 71 | 1015.4 |
| 20260507005028 | 15 | 23 | 24.1 | 30.6 | 0.00 | 0.00 | 0.00 | 70 | 1015.3 |
| 20260507004528 | 16 | 13 | 20.9 | 29.0 | 0.00 | 0.00 | 0.00 | 70 | 1015.3 |
| 20260507003029 | 16 | 12 | 19.3 | 24.1 | 0.00 | 0.00 | 0.00 | 70 | 1015.2 |
| 20260507002528 | 16 | 22 | 14.5 | 20.9 | 0.00 | 0.00 | 0.00 | 70 | 1015.1 |
| 20260507001528 | 16 | 32 | 12.9 | 25.7 | 0.00 | 0.00 | 0.00 | 69 | 1014.9 |
| 20260507000528 | 16 | 9 | 17.7 | 24.1 | 0.00 | 0.00 | 0.00 | 68 | 1014.7 |
| 20260507000028 | 16 | 22 | 19.3 | 25.7 | 0.00 | 0.00 | 0.00 | 68 | 1014.8 |
| 20260506235528 | 16 | 16 | 22.5 | 27.4 | 0.00 | 0.00 | 0.00 | 68 | 1014.8 |
| 20260506235028 | 16 | 10 | 19.3 | 27.4 | 0.00 | 0.00 | 0.00 | 68 | 1014.7 |
| 20260506234028 | 16 | 7 | 16.1 | 29.0 | 0.00 | 0.00 | 0.00 | 68 | 1014.6 |
| 20260506233528 | 16 | 7 | 22.5 | 29.0 | 0.00 | 0.00 | 0.00 | 67 | 1014.5 |
| 20260506233028 | 17 | 9 | 19.3 | 25.7 | 0.00 | 0.00 | 0.00 | 67 | 1014.5 |
| 20260506232528 | 17 | 10 | 24.1 | 30.6 | 0.00 | 0.00 | 0.00 | 66 | 1014.5 |
| 20260506232028 | 17 | 37 | 19.3 | 30.6 | 0.00 | 0.00 | 0.00 | 67 | 1014.5 |
| 20260506231528 | 17 | 25 | 14.5 | 29.0 | 0.00 | 0.00 | 0.00 | 67 | 1014.4 |
| 20260506231028 | 17 | 12 | 20.9 | 29.0 | 0.00 | 0.00 | 0.00 | 66 | 1014.2 |
| 20260506230028 | 17 | 3 | 24.1 | 25.7 | 0.00 | 0.00 | 0.00 | 64 | 1014.2 |
| 20260506225528 | 17 | 14 | 14.5 | 27.4 | 0.00 | 0.00 | 0.00 | 65 | 1014.2 |
| 20260506225029 | 17 | 4 | 16.1 | 27.4 | 0.00 | 0.00 | 0.00 | 64 | 1014.2 |
| 20260506224528 | 17 | 4 | 17.7 | 30.6 | 0.00 | 0.00 | 0.00 | 64 | 1014.1 |
| 20260506223528 | 18 | 31 | 25.7 | 29.0 | 0.00 | 0.00 | 0.00 | 62 | 1013.9 |
| 20260506223028 | 18 | 39 | 24.1 | 25.7 | 0.00 | 0.00 | 0.00 | 62 | 1013.9 |
| 20260506222530 | 18 | 11 | 14.5 | 27.4 | 0.00 | 0.00 | 0.00 | 62 | 1014.0 |
| 20260506222028 | 18 | 17 | 20.9 | 27.4 | 0.00 | 0.00 | 0.00 | 62 | 1013.9 |
| 20260506221528 | 18 | 5 | 17.7 | 25.7 | 0.00 | 0.00 | 0.00 | 62 | 1013.9 |
| 20260506221028 | 18 | 348 | 17.7 | 27.4 | 0.00 | 0.00 | 0.00 | 62 | 1014.0 |
| 20260506220528 | 18 | 2 | 17.7 | 27.4 | 0.00 | 0.00 | 0.00 | 62 | 1013.9 |
| 20260506220028 | 18 | 358 | 17.7 | 25.7 | 0.00 | 0.00 | 0.00 | 62 | 1013.7 |
| 20260506215528 | 18 | 341 | 17.7 | 27.4 | 0.00 | 0.00 | 0.00 | 61 | 1013.7 |
| 20260506214528 | 18 | 2 | 25.7 | 29.0 | 0.00 | 0.00 | 0.00 | 61 | 1013.7 |
| 20260506214028 | 18 | 34 | 24.1 | 29.0 | 0.00 | 0.00 | 0.00 | 62 | 1013.7 |
| 20260506213528 | 18 | 23 | 20.9 | 24.1 | 0.00 | 0.00 | 0.00 | 62 | 1014.1 |
| 20260506213029 | 18 | 32 | 17.7 | 20.9 | 0.00 | 0.00 | 0.00 | 63 | 1014.2 |
| 20260506212028 | 18 | 357 | 14.5 | 24.1 | 0.00 | 0.00 | 0.00 | 63 | 1014.1 |
| 20260506211530 | 18 | 33 | 20.9 | 24.1 | 0.00 | 0.00 | 0.00 | 63 | 1014.0 |
| 20260506210528 | 17 | 25 | 16.1 | 24.1 | 0.00 | 0.00 | 0.00 | 63 | 1014.0 |
| 20260506210028 | 18 | 34 | 19.3 | 20.9 | 0.00 | 0.00 | 0.00 | 63 | 1014.0 |
| 20260506205528 | 18 | 347 | 14.5 | 20.9 | 0.00 | 0.00 | 0.00 | 62 | 1014.0 |
| 20260506205028 | 18 | 9 | 20.9 | 25.7 | 0.00 | 0.00 | 0.00 | 62 | 1014.1 |
| 20260506204528 | 17 | 3 | 11.3 | 25.7 | 0.00 | 0.00 | 0.00 | 63 | 1014.3 |
| 20260506204028 | 18 | 13 | 17.7 | 25.7 | 0.00 | 0.00 | 0.00 | 61 | 1014.3 |
| 20260506203528 | 17 | 68 | 8.0 | 24.1 | 0.00 | 0.00 | 0.00 | 62 | 1014.4 |
| 20260506202528 | 17 | 94 | 4.8 | 22.5 | 0.00 | 0.00 | 0.00 | 63 | 1014.6 |
| 20260506202028 | 17 | 56 | 16.1 | 24.1 | 0.00 | 0.00 | 0.00 | 64 | 1014.6 |
| 20260506201029 | 17 | 59 | 19.3 | 24.1 | 0.00 | 0.00 | 0.00 | 63 | 1014.7 |
| 20260506200528 | 17 | 70 | 12.9 | 24.1 | 0.00 | 0.00 | 0.00 | 63 | 1014.7 |
| 20260506200028 | 17 | 57 | 12.9 | 22.5 | 0.00 | 0.00 | 0.00 | 64 | 1014.7 |
| 20260506195528 | 17 | 31 | 20.9 | 22.5 | 0.00 | 0.00 | 0.00 | 64 | 1014.7 |
| 20260506195028 | 16 | 35 | 17.7 | 22.5 | 0.00 | 0.00 | 0.00 | 65 | 1014.9 |
| 20260506194028 | 17 | 17 | 4.8 | 27.4 | 0.00 | 0.00 | 0.00 | 63 | 1015.0 |
| 20260506193529 | 17 | 35 | 17.7 | 27.4 | 0.00 | 0.00 | 0.00 | 64 | 1014.9 |
| 20260506193028 | 16 | 29 | 14.5 | 27.4 | 0.00 | 0.00 | 0.00 | 64 | 1014.8 |
| 20260506192530 | 16 | 60 | 22.5 | 27.4 | 0.00 | 0.00 | 0.00 | 65 | 1014.6 |
| 20260506192028 | 17 | 26 | 20.9 | 33.8 | 0.00 | 0.00 | 0.00 | 65 | 1014.4 |
| 20260506191529 | 16 | 17 | 16.1 | 33.8 | 0.00 | 0.00 | 0.00 | 67 | 1014.1 |
| 20260506191032 | 16 | 60 | 22.5 | 29.0 | 0.00 | 0.00 | 0.00 | 66 | 1014.0 |
| 20260506190531 | 16 | 25 | 22.5 | 29.0 | 0.00 | 0.00 | 0.00 | 65 | 1014.1 |
| 20260506190028 | 16 | 34 | 19.3 | 27.4 | 0.00 | 0.00 | 0.00 | 66 | 1014.2 |
| 20260506185528 | 16 | 15 | 25.7 | 30.6 | 0.00 | 0.00 | 0.00 | 68 | 1014.3 |
| 20260506185028 | 15 | 30 | 24.1 | 30.6 | 0.00 | 0.00 | 0.00 | 67 | 1014.5 |
| 20260506184529 | 16 | 16 | 19.3 | 30.6 | 0.00 | 0.00 | 0.00 | 67 | 1014.5 |
| 20260506184028 | 16 | 49 | 30.6 | 32.2 | 0.00 | 0.00 | 0.00 | 68 | 1014.5 |
| 20260506183029 | 16 | 19 | 27.4 | 32.2 | 0.00 | 0.00 | 0.00 | 65 | 1014.4 |
| 20260506182528 | 16 | 356 | 16.1 | 32.2 | 0.00 | 0.00 | 0.00 | 66 | 1014.5 |
| 20260506182029 | 15 | 350 | 16.1 | 30.6 | 0.00 | 0.00 | 0.00 | 66 | 1014.5 |
| 20260506181528 | 15 | 18 | 19.3 | 33.8 | 0.00 | 0.00 | 0.00 | 67 | 1014.3 |
| 20260506181028 | 15 | 40 | 20.9 | 33.8 | 0.00 | 0.00 | 0.00 | 71 | 1014.4 |
| 20260506180529 | 15 | 24 | 22.5 | 29.0 | 0.00 | 0.00 | 0.00 | 69 | 1014.4 |
| 20260506175028 | 15 | 27 | 25.7 | 35.4 | 0.00 | 0.00 | 0.00 | 69 | 1014.3 |
| 20260506174528 | 15 | 24 | 20.9 | 35.4 | 0.00 | 0.00 | 0.00 | 69 | 1014.7 |
| 20260506173528 | 13 | 61 | 25.7 | 40.2 | 0.00 | 0.00 | 0.00 | 71 | 1014.6 |
| 20260506173028 | 14 | 34 | 25.7 | 38.6 | 0.00 | 0.00 | 0.00 | 69 | 1014.9 |
| 20260506172529 | 13 | 35 | 17.7 | 38.6 | 0.00 | 0.00 | 0.00 | 72 | 1014.9 |
| 20260506172028 | 13 | 41 | 24.1 | 35.4 | 0.00 | 0.00 | 0.00 | 73 | 1015.1 |
| 20260506171528 | 13 | 23 | 29.0 | 35.4 | 0.00 | 0.00 | 0.00 | 72 | 1014.9 |
| 20260506171028 | 13 | 32 | 27.4 | 35.4 | 0.00 | 0.00 | 0.00 | 72 | 1015.0 |
| 20260506170528 | 13 | 36 | 24.1 | 29.0 | 0.00 | 0.00 | 0.00 | 72 | 1015.1 |
| 20260506170029 | 12 | 35 | 20.9 | 32.2 | 0.00 | 0.00 | 0.00 | 75 | 1015.2 |
| 20260506165028 | 12 | 34 | 30.6 | 35.4 | 0.00 | 0.00 | 0.00 | 75 | 1015.0 |
| 20260506164028 | 12 | 23 | 24.1 | 29.0 | 0.00 | 0.00 | 0.00 | 77 | 1015.0 |
| 20260506163528 | 12 | 30 | 20.9 | 33.8 | 0.00 | 0.00 | 0.00 | 76 | 1015.1 |
| 20260506163028 | 12 | 26 | 33.8 | 33.8 | 0.00 | 0.00 | 0.00 | 76 | 1015.0 |
| 20260506162528 | 12 | 15 | 22.5 | 30.6 | 0.00 | 0.00 | 0.00 | 77 | 1015.2 |
| 20260506161529 | 12 | 15 | 27.4 | 33.8 | 0.00 | 0.00 | 0.00 | 75 | 1015.1 |
| 20260506161029 | 12 | 11 | 25.7 | 33.8 | 0.00 | 0.00 | 0.00 | 76 | 1015.0 |
| 20260506160528 | 12 | 20 | 30.6 | 30.6 | 0.00 | 0.00 | 0.00 | 76 | 1014.9 |
| 20260506160030 | 11 | 19 | 27.4 | 29.0 | 0.00 | 0.00 | 0.00 | 76 | 1015.0 |
| 20260506155028 | 12 | 16 | 17.7 | 29.0 | 0.00 | 0.00 | 0.00 | 77 | 1015.0 |
| 20260506154529 | 11 | 11 | 25.7 | 29.0 | 0.00 | 0.00 | 0.00 | 77 | 1015.2 |
| 20260506154029 | 11 | 13 | 20.9 | 24.1 | 0.00 | 0.00 | 0.00 | 79 | 1015.6 |
| 20260506153529 | 11 | 5 | 19.3 | 20.9 | 0.00 | 0.00 | 0.00 | 78 | 1016.0 |
| 20260506152959 | 11 | 7 | 11.3 | 16.1 | 0.00 | 0.00 | 0.00 | 79 | 1016.5 |
| 20260506151959 | 11 | 31 | 9.7 | 12.9 | 0.00 | 0.00 | 0.00 | 80 | 1016.9 |
| 20260506151458 | 11 | 36 | 11.3 | 17.7 | 0.00 | 0.00 | 0.00 | 79 | 1017.1 |
| 20260506150958 | 11 | 42 | 6.4 | 24.1 | 0.00 | 0.00 | 0.00 | 79 | 1017.0 |
| 20260506150458 | 11 | 41 | 12.9 | 27.4 | 0.00 | 0.00 | 0.00 | 79 | 1016.2 |
| 20260506150028 | 11 | 7 | 20.9 | 27.4 | 0.00 | 0.00 | 0.00 | 79 | 1015.2 |
| 20260506145529 | 11 | 17 | 24.1 | 27.4 | 0.00 | 0.00 | 0.00 | 79 | 1015.0 |
| 20260506144958 | 11 | 31 | 12.9 | 24.1 | 0.00 | 0.00 | 0.00 | 81 | 1015.2 |
| 20260506144458 | 11 | 24 | 12.9 | 24.1 | 0.00 | 0.00 | 0.00 | 81 | 1015.3 |
| 20260506143959 | 11 | 37 | 14.5 | 24.1 | 0.00 | 0.00 | 0.00 | 81 | 1015.1 |
| 20260506143459 | 11 | 24 | 19.3 | 24.1 | 0.00 | 0.00 | 0.00 | 81 | 1015.4 |
| 20260506142959 | 11 | 26 | 16.1 | 25.7 | 0.00 | 0.00 | 0.00 | 81 | 1015.4 |
| 20260506142459 | 11 | 30 | 19.3 | 25.7 | 0.00 | 0.00 | 0.00 | 81 | 1015.3 |
| 20260506141959 | 11 | 13 | 17.7 | 20.9 | 0.00 | 0.00 | 0.00 | 81 | 1015.3 |
| 20260506141458 | 11 | 12 | 16.1 | 22.5 | 0.00 | 0.00 | 0.00 | 82 | 1015.3 |
| 20260506140958 | 11 | 6 | 12.9 | 22.5 | 0.00 | 0.00 | 0.00 | 83 | 1015.4 |
| 20260506140458 | 11 | 13 | 17.7 | 20.9 | 0.00 | 0.00 | 0.00 | 83 | 1015.5 |
| 20260506140033 | 11 | 29 | 12.9 | 25.7 | 0.00 | 0.00 | 0.00 | 84 | 1015.4 |
| 20260506135458 | 10 | 27 | 12.9 | 25.7 | 0.00 | 0.00 | 0.00 | 85 | 1015.1 |
| 20260506135029 | 10 | 37 | 22.5 | 25.7 | 0.00 | 0.00 | 0.00 | 87 | 1014.7 |
| 20260506134458 | 10 | 6 | 22.5 | 27.4 | 0.00 | 0.00 | 0.00 | 88 | 1014.6 |
| 20260506133958 | 10 | 17 | 12.9 | 27.4 | 0.00 | 0.00 | 0.00 | 90 | 1014.5 |
| 20260506133458 | 10 | 13 | 25.7 | 27.4 | 0.00 | 0.00 | 0.00 | 89 | 1014.2 |
| 20260506133029 | 10 | 10 | 19.3 | 22.5 | 0.00 | 0.00 | 0.00 | 91 | 1014.5 |
| 20260506132458 | 10 | 0 | 14.5 | 24.1 | 0.00 | 0.00 | 0.00 | 91 | 1014.5 |
| 20260506131959 | 10 | 3 | 20.9 | 24.1 | 0.00 | 0.00 | 0.00 | 91 | 1014.6 |
| 20260506131459 | 10 | 9 | 17.7 | 24.1 | 0.00 | 0.00 | 0.00 | 92 | 1014.5 |
| 20260506130959 | 10 | 5 | 12.9 | 24.1 | 0.00 | 0.00 | 0.00 | 93 | 1014.5 |
| 20260506130459 | 10 | 8 | 17.7 | 24.1 | 0.00 | 0.00 | 0.00 | 93 | 1014.1 |
| 20260506125958 | 10 | 0 | 12.9 | 22.5 | 0.00 | 0.00 | 0.00 | 93 | 1014.4 |
| 20260506125459 | 10 | 22 | 16.1 | 22.5 | 0.00 | 0.00 | 0.00 | 93 | 1014.1 |
| 20260506124959 | 10 | 352 | 12.9 | 22.5 | 0.00 | 0.00 | 0.00 | 94 | 1014.1 |
| 20260506124458 | 10 | 3 | 16.1 | 29.0 | 0.00 | 0.00 | 0.00 | 94 | 1014.0 |
| 20260506123958 | 10 | 15 | 19.3 | 29.0 | 0.00 | 0.00 | 0.00 | 94 | 1014.0 |
| 20260506123458 | 10 | 4 | 22.5 | 22.5 | 0.00 | 0.00 | 0.00 | 93 | 1013.9 |
| 20260506122958 | 10 | 355 | 16.1 | 24.1 | 0.00 | 0.00 | 0.00 | 93 | 1014.0 |
| 20260506122500 | 10 | 0 | 20.9 | 25.7 | 0.00 | 0.00 | 0.00 | 92 | 1013.7 |
| 20260506121958 | 10 | 9 | 19.3 | 25.7 | 0.00 | 0.00 | 0.00 | 92 | 1013.9 |
| 20260506121459 | 10 | 10 | 17.7 | 25.7 | 0.00 | 0.00 | 0.00 | 91 | 1013.7 |
| 20260506120958 | 10 | 359 | 16.1 | 25.7 | 0.00 | 0.00 | 0.00 | 92 | 1013.9 |
| 20260506120459 | 10 | 6 | 16.1 | 24.1 | 0.00 | 0.00 | 0.00 | 91 | 1013.8 |
| 20260506115958 | 10 | 11 | 20.9 | 24.1 | 0.00 | 0.00 | 0.00 | 91 | 1013.9 |
| 20260506115459 | 10 | 12 | 17.7 | 25.7 | 0.00 | 0.00 | 0.00 | 92 | 1013.7 |
| 20260506114458 | 10 | 358 | 20.9 | 22.5 | 0.00 | 0.00 | 0.00 | 92 | 1013.7 |
| 20260506113958 | 10 | 21 | 17.7 | 22.5 | 0.00 | 0.00 | 0.00 | 93 | 1013.5 |
| 20260506113459 | 10 | 358 | 14.5 | 22.5 | 0.00 | 0.00 | 0.00 | 93 | 1013.4 |
| 20260506112959 | 10 | 17 | 16.1 | 22.5 | 0.00 | 0.00 | 0.00 | 93 | 1013.3 |
| 20260506112459 | 10 | 10 | 14.5 | 25.7 | 0.00 | 0.00 | 0.00 | 94 | 1013.2 |
| 20260506111958 | 10 | 8 | 22.5 | 25.7 | 0.00 | 0.00 | 0.00 | 93 | 1013.1 |
| 20260506110958 | 10 | 3 | 14.5 | 32.2 | 0.00 | 0.00 | 0.00 | 93 | 1012.8 |
| 20260506110458 | 10 | 1 | 22.5 | 32.2 | 0.00 | 0.00 | 0.00 | 92 | 1013.0 |
| 20260506105959 | 10 | 359 | 22.5 | 30.6 | 0.00 | 0.00 | 0.00 | 92 | 1013.0 |
| 20260506105458 | 10 | 0 | 22.5 | 32.2 | 0.00 | 0.00 | 0.00 | 91 | 1012.8 |
| 20260506104958 | 10 | 357 | 19.3 | 33.8 | 0.00 | 0.00 | 0.00 | 89 | 1012.7 |
| 20260506104458 | 10 | 353 | 29.0 | 33.8 | 0.00 | 0.00 | 0.00 | 87 | 1012.7 |
| 20260506104029 | 10 | 357 | 24.1 | 32.2 | 0.00 | 0.00 | 0.00 | 86 | 1012.5 |
| 20260506103458 | 11 | 346 | 17.7 | 27.4 | 0.00 | 0.00 | 0.00 | 82 | 1012.6 |
| 20260506102959 | 11 | 6 | 16.1 | 27.4 | 0.00 | 0.00 | 0.00 | 81 | 1012.7 |
| 20260506102459 | 11 | 13 | 17.7 | 27.4 | 0.00 | 0.00 | 0.00 | 80 | 1012.5 |
| 20260506101959 | 11 | 358 | 25.7 | 29.0 | 0.00 | 0.00 | 0.00 | 79 | 1012.4 |
| 20260506100958 | 11 | 5 | 20.9 | 25.7 | 0.00 | 0.00 | 0.00 | 78 | 1012.4 |
| 20260506095959 | 11 | 4 | 19.3 | 27.4 | 0.00 | 0.00 | 0.00 | 77 | 1012.2 |
| 20260506095458 | 11 | 355 | 19.3 | 27.4 | 0.00 | 0.00 | 0.00 | 77 | 1012.2 |
| 20260506094959 | 11 | 0 | 27.4 | 27.4 | 0.00 | 0.00 | 0.00 | 76 | 1011.9 |
| 20260506094459 | 11 | 356 | 22.5 | 25.7 | 0.00 | 0.00 | 0.00 | 77 | 1012.0 |